Regional Weather Roundup
Issued by NWS

Home | Current Version | Previous Version | Graphics & Text | Print | Product List | Glossary On
Versions: 1 2 3 4 5 6 7 8 9 10 11 12 13 14 15 16 17 18 19 20 21 22 23 24 25 26 27 28 29 30 31 32 33 34 35 36 37 38 39 40 41 42 43 44 45 46 47 48 49 50
000
ASUS44 KMEG 310100
RWRTN
TENNESSEE HOURLY STATE WEATHER ROUNDUP
NATIONAL WEATHER SERVICE MEMPHIS TN
800 PM CDT SUN AUG 30 2015

TNZ002-004-019-021-049-052-054-088>092-310200-
WEST TENNESSEE

CITY           SKY/WX    TMP DP  RH WIND       PRES   REMARKS
MEMPHIS INTL   MOCLDY    80  67  64 SE5       30.02R
NWS MEMPHIS      N/A     75 N/A N/A MISG        N/A
JACKSON        RAIN      71  69  93 SE5       30.05F
DYERSBURG      MOCLDY   N/A N/A N/A MISG        N/A
$$

TNZ008-025-027-028-033-062-065-066-310200-
NORTH MIDDLE TENNESSEE

CITY           SKY/WX    TMP DP  RH WIND       PRES   REMARKS
NASHVILLE      MOCLDY    72  63  73 SE6       30.08S
CLARKSVILLE    CLOUDY    73  70  90 CALM      30.06S
CROSSVILLE     CLOUDY    72  66  81 CALM      30.15R
$$

TNZ061-075-076-078-094-096-097-310200-
SOUTH MIDDLE TENNESSEE

CITY           SKY/WX    TMP DP  RH WIND       PRES   REMARKS
SHELBYVILLE    PTCLDY    72  70  94 E3        30.11R
$$

TNZ017-018-042-046-047-310200-
NORTHEAST TENNESSEE

CITY           SKY/WX    TMP DP  RH WIND       PRES   REMARKS
TRI CITIES     CLOUDY    72  60  66 CALM      30.13R
$$

TNZ012-013-036-069-073-074-310200-
CENTRAL EAST TENNESSEE

CITY           SKY/WX    TMP DP  RH WIND       PRES   REMARKS
KNOXVILLE      CLOUDY    68  64  87 CALM      30.06S
OAK RIDGE      CLOUDY    75  66  73 CALM      30.12R
GATLINBURG     CLEAR     72  61  68 SE3       30.09S
$$

TNZ083-085-099-310200-
SOUTHEAST TENNESSEE

CITY           SKY/WX    TMP DP  RH WIND       PRES   REMARKS
CHATTANOOGA    CLOUDY    75  65  70 SE3       30.10R
$$

SKY/WX REPORTED AS FAIR MEANS FEW OR NO CLOUDS BELOW
12 THOUSAND FEET.




USA.gov is the U.S. government's official web portal to all federal, state and local government web resources and services.